Вернуться в каталог

STARLINK-35575

АктивенСвязьVLEO
NORAD 66165·PAYLOAD·🇺🇸 United States

Запущен Oct 25, 2025 с Cape Canaveral Space Force Station

Loading…

Ближайшие Пролёты (ближайшие 24 часа)

TLE

СвежийSource: CelesTrak SupGP

Эпоха: Sep 14, 2026, 20:46 UTC

1 66165C 25240V   26257.86576389  .00051324  00000+0  15168-2 0  2575
2 66165  53.1571 260.0608 0001137  88.6855 109.2202 15.34357688    19

Отслеживайте STARLINK-35575 в реальном времени с AllMySat

Download on the App Store